Regional Weather Roundup
Issued by NWS Kansas City/Pleasant Hill, MO

Home | Current Version | Previous Version | Text Only | Print | Product List | Glossary On
Versions: 1 2 3 4 5 6 7 8 9 10 11 12 13 14 15 16 17 18 19 20 21 22 23 24 25 26 27 28 29 30 31 32 33 34 35 36 37 38 39 40 41 42 43 44 45 46 47 48 49 50
000
ASUS43 KEAX 060910
RWREAX

WEATHER ROUNDUP FOR EASTERN KANSAS AND NORTHWEST MISSOURI
NATIONAL WEATHER SERVICE KANSAS CITY/PLEASANT HILL MO
400 AM CDT MON JUL 06 2015

KSZ040-057-103>105-MOZ028-029-037-043-061000-
...KANSAS CITY METROPOLITAN AREA...

CITY           SKY/WX    TMP DP  RH WIND       PRES   REMARKS
K.C. INTL      CLOUDY    75  71  87 S12       29.89S
K.C. DOWNTOWN  MOCLDY    76  69  79 S14       29.90R
LEES SUMMIT    PTCLDY    73  67  81 S14       29.93R
OLATHE - IXD   MOCLDY    73  69  87 S13       29.92R
OLATHE - OJC   MOCLDY    72  69  90 S12       29.92R
LAWRENCE       MOCLDY    74  71  91 SE6       29.89S

$$

MOZ001>008-011>017-020>025-030>033-038>040-044>046-053-054-061000-
...NORTHERN AND CENTRAL MISSOURI...

CITY           SKY/WX    TMP DP  RH WIND       PRES   REMARKS
ST. JOSEPH     CLOUDY    78  71  79 S12       29.86S
MOSBY          PTSUNNY   73  68  83 SE5       29.91R
WARRENSBURG    PTCLDY    73  66  78 S8        29.93R
WHITEMAN AFB   PTCLDY    73  68  86 S9        29.93S
CLINTON        PTCLDY    75  70  83 S7        29.95S
SEDALIA        PTCLDY    74  67  78 S8        29.96S
WARSAW         NOT AVBL
CHILLICOTHE      N/A     75  68  78 S6        29.92R
KIRKSVILLE     MOCLDY    72  68  87 S8        29.93F

$$

MOZ041-047>049-056>058-063>065-088>090-097-061000-
...EASTERN AND SOUTHERN MISSOURI...

CITY           SKY/WX    TMP DP  RH WIND       PRES   REMARKS
ST. LOUIS INTL PTCLDY    75  68  78 S5        30.01R
SPIRIT OF STL  CLEAR     71  70  96 CALM      29.98R
COLUMBIA       PTCLDY    73  71  93 S8        29.98R
JEFFERSON CITY PTCLDY    74  71  91 SE5       29.97R
MEXICO         PTCLDY   N/A N/A N/A S5        29.97R
ROLLA          CLEAR     72  71  97 S9        29.99R
LEBANON        PTCLDY    73  70  88 MISG      30.01S
OSAGE BEACH    PTCLDY    73  70  88 S3        29.98S
SPRINGFIELD    PTCLDY    71  69  93 S8        30.00S
BRANSON          N/A     72  70  94 CALM      30.03S
JOPLIN         PTCLDY    74  70  87 S9        29.97S
WEST PLAINS    CLOUDY    72  69  90 CALM      30.04S

$$

IAZ060-094-KSZ022-034>040-054-083-096-NEZ052-066-093-061000-
...KANSAS...SOUTHEAST NEBRASKA AND IOWA...

CITY           SKY/WX    TMP DP  RH WIND       PRES   REMARKS
TOPEKA         MOCLDY    79  72  79 S7        29.87S
MANHATTAN      CLOUDY    80  71  74 S8        29.83S
EMPORIA        CLOUDY    76  70  82 S12       29.89S
CHANUTE        MOCLDY    74  71  91 S10       29.93F
WICHITA        MOCLDY    79  69  71 S13       29.87F
OMAHA          CLOUDY    80  73  79 SW8       29.81R
LINCOLN        CLOUDY    82  69  64 W13       29.84R
FALLS CITY     CLOUDY    81  72  74 S10       29.82S
LAMONI         CLOUDY    75  71  87 S10       29.86F
DES MOINES     CLOUDY    77  71  82 S12       29.81F

$$




USA.gov is the U.S. government's official web portal to all federal, state and local government web resources and services.